Location: Franzen
(48.6167°N, 15.3833°E)
Time: 09:22:13
(UTC+00:00)

A-11 Canister half - Pass Details

Date: 31 July 2021
Orbit: 1515 x 1685 km, 47.2° (Epoch: 21 September)

Event Time Altitude Azimuth Distance (km) Brightness Sun altitude
Rises 17:13:03 0° 244° (WSW) 4,803 12.4 12.1°
Reaches altitude 10° 17:16:07 10° 242° (WSW) 3,841 12.0 11.7°
Maximum altitude 17:25:54 72° 161° (SSE) 1,730 9.4 10.1°
Drops below altitude 10° 17:35:59 10° 80° (E) 3,948 10.7 8.5°
Sets 17:39:11 0° 78° (ENE) 4,942 11.1 8.0°
